Location: Barcelona
(41.3830°N, 2.1830°E)
Time: 16:20:45
(UTC+02:00)

ISS - Pass Details

Date: 07 March 2021
Orbit: 418 x 422 km, 51.6° (Epoch: 16 April)

Event Time Altitude Azimuth Distance (km) Brightness Sun altitude
Exits shadow 04:55:18 14° 22° (NNE) 1,263 -0.9 -27.0°
Drops below altitude 10° 04:56:38 10° 45° (NE) 1,499 -0.2 -26.7°
Sets 04:59:24 0° 70° (ENE) 2,362 1.4 -26.2°
